Location: Béaulencourt
(50.0796°N, 2.8795°E)
Time: 23:23:29
(UTC+00:00)

Cosmos 1703 Rocket - Pass Details

Date: 20 January 2026
Orbit: 599 x 625 km, 82.5° (Epoch: 17 February)

Event Time Altitude Azimuth Distance (km) Brightness Sun altitude
Rises 06:04:06 0° 351° (N) 2,862 6.7 -14.6°
Reaches altitude 10° 06:06:19 10° 353° (N) 1,956 5.9 -14.2°
Maximum altitude 06:10:38 73° 79° (ENE) 637 3.7 -13.5°
Drops below altitude 10° 06:14:57 10° 164° (SSE) 1,951 6.6 -12.9°
Sets 06:17:10 0° 166° (SSE) 2,854 7.4 -12.5°
